Terug naar catalogus

DELTA 1 DEB

ActiefPO
NORAD 8970·DEBRIS·🇺🇸 United States

Gelanceerd Jan 22, 1975 vanaf Vandenberg Space Force Base

Loading…

Volgende Passages (komende 24 uur)

TLE

VersSource: Space-Track

Epoch: Sep 14, 2026, 13:52 UTC

1 08970U 75004BC  26257.57784410  .00001203  00000-0  31392-3 0  9995
2 08970  97.3202  11.9747 0099782 280.6403  78.3568 14.48062825632240

Volg DELTA 1 DEB in realtime met AllMySat

Download on the App Store